User: anonymous   Login
Location: Wanzleben
(52.0609°N, 11.4408°E)
Time: 23:12:07
(UTC+00:00)
Language:

Landsat 7 - Orbit

View from above orbital plane
View from above orbital plane
View from above satellite
View from above satellite

Ground track
Ground track

The orbit data is extracted from the following two-line orbital elements,

1 25682U 99020A   21210.60278731  .00000056  00000-0  22108-4 0  9991
2 25682  98.0283 265.9683 0001705  75.3838 284.7551 14.57205160185536
Epoch (UTC): 29 July 2021 14:28:00
Eccentricity: 0.0001705
inclination: 98.0283°
perigee height: 701 km
apogee height: 703 km
right ascension of ascending node: 265.9683°
argument of perigee: 75.3838°
revolutions per day: 14.57205160
mean anomaly at epoch: 284.7551°
orbit number at epoch: 18553

The dashed part of the orbit path shows where the satellite is in the earth's shadow,  

DLR